User: anonymous   Login
Location: Unspecified
(50.7693°N, 0.0000°E)
Time: 12:56:43
(UTC+00:00)
Language:

Transit 2A - Orbit

View from above orbital plane
View from above orbital plane
View from above satellite
View from above satellite

Ground track
Ground track

The orbit data is extracted from the following two-line orbital elements,

1    45U 60007A   20295.29307200 -.00000003 +00000-0 +26103-4 0  9993
2    45 066.6957 049.2594 0260863 225.1565 132.8079 14.33690920083877
Epoch (UTC): 21 October 2020 07:02:01
Eccentricity: 0.0260863
inclination: 66.6957°
perigee height: 593 km
apogee height: 966 km
right ascension of ascending node: 49.2594°
argument of perigee: 225.1565°
revolutions per day: 14.33690920
mean anomaly at epoch: 132.8079°
orbit number at epoch: 8387

The dashed part of the orbit path shows where the satellite is in the earth's shadow,  

DLR